Location: Ostrava
(49.8330°N, 18.2830°E)
Time: 21:13:41
(UTC+01:00)

Iridium 7 - Visible Passes

Search period start: 05 March 2015 00:00
Search period end: 15 March 2015 00:00
Orbit: 776 x 779 km, 86.4° (Epoch: 05 March)

Date Brightness Start Highest point End Pass type
(mag) Time Alt. Az. Time Alt. Az. Time Alt. Az.
05 Mar 6.9 20:41:18 10° N 20:43:54 29° NNE 20:43:54 29° NNE visible
05 Mar 8.1 22:22:56 10° NNW 22:24:23 16° NW 22:24:23 16° NW visible
06 Mar 6.8 20:07:58 10° N 20:10:47 27° NE 20:10:47 27° NE visible
06 Mar 7.6 21:48:49 10° NNW 21:51:16 24° NW 21:51:16 24° NW visible
07 Mar 7.0 19:34:55 10° NNE 19:37:41 20° NE 19:37:41 20° NE visible
07 Mar 6.9 21:15:01 10° N 21:18:11 36° NNW 21:18:11 36° NNW visible
08 Mar 7.3 19:02:25 10° NE 19:04:38 14° ENE 19:04:38 14° ENE visible
08 Mar 6.2 20:41:23 10° N 20:45:07 48° N 20:45:07 48° N visible
08 Mar 8.1 22:23:41 10° NW 22:25:37 15° WNW 22:25:37 15° WNW visible
09 Mar 6.0 20:07:57 10° N 20:12:04 44° NE 20:12:04 44° NE visible
09 Mar 7.5 21:49:14 10° NNW 21:52:35 24° WNW 21:52:35 24° WNW visible
10 Mar 6.4 19:34:43 10° NNE 19:39:04 30° ENE 19:39:04 30° ENE visible
10 Mar 6.7 21:15:16 10° NNW 21:19:34 40° WNW 21:19:34 40° WNW visible
11 Mar 6.9 19:01:49 10° NNE 19:05:21 19° ENE 19:06:05 18° E visible
11 Mar 5.7 20:41:32 10° N 20:46:36 71° WNW 20:46:36 71° WNW visible
11 Mar 8.3 22:25:05 10° NW 22:26:37 11° WNW 22:27:06 11° WNW visible
12 Mar 7.4 18:29:55 10° NE 18:31:17 11° ENE 18:32:56 10° E visible
12 Mar 5.4 20:07:59 10° N 20:13:13 69° E 20:13:39 65° ESE visible
12 Mar 7.8 21:49:49 10° NNW 21:53:28 19° WNW 21:54:10 18° W visible
13 Mar 5.9 19:34:37 10° N 19:39:32 40° ENE 19:40:45 35° ESE visible
13 Mar 7.1 21:15:37 10° NNW 21:20:11 31° W 21:21:16 28° WSW visible
14 Mar 6.6 19:01:30 10° NNE 19:05:43 25° ENE 19:07:54 19° ESE visible
14 Mar 6.2 20:41:45 10° NNW 20:46:49 52° W 20:48:25 38° SW visible
